Location: McFarlands Corners
(41.4117°N, 81.3382°W)
Time: 12:42:58
(UTC+00:00)

Transit 4A - Pass Details

Date: 21 February 2026
Orbit: 863 x 978 km, 66.8° (Epoch: 17 March)

Event Time Altitude Azimuth Distance (km) Brightness Sun altitude
Rises 14:58:53 0° 339° (NNW) 3,594 10.5 26.5°
Reaches altitude 10° 15:02:53 10° 4° (N) 2,673 10.0 27.0°
Maximum altitude 15:06:00 14° 34° (NE) 2,410 10.1 27.4°
Drops below altitude 10° 15:09:08 10° 65° (ENE) 2,701 10.6 27.8°
Sets 15:13:12 0° 89° (E) 3,661 11.6 28.3°
